Location: Unspecified
(0.0000°N, 0.0000°E)
Time: 21:46:59
(UTC+00:00)

Tiros 1 - Pass Details

Date: 28 October 2021
Orbit: 630 x 664 km, 48.4° (Epoch: 04 December)

Event Time Altitude Azimuth Distance (km) Brightness Sun altitude
Rises 17:39:18 0° 310° (NW) 2,911 11.1 1.1°
Reaches altitude 10° 17:41:42 10° 303° (WNW) 2,001 10.4 0.5°
Maximum altitude 17:46:05 44° 231° (SW) 871 8.5 -0.6°
Drops below altitude 10° 17:50:28 10° 159° (SSE) 2,001 9.6 -1.6°
Sets 17:52:52 0° 152° (SSE) 2,910 10.4 -2.2°
